owner,sensor,date,latitude,longitude,vertical_datum,wind_speed,wind_to_direction,wind_speed_of_gust,qcFlag 
TCOON,ioos:station:TCOON:524:1,2016-06-01T00:00:00Z,29.8672,-93.9310,0.0,99.0,-9999.0,99.0,'11144222,99999999,11144222' 
TCOON,ioos:station:TCOON:524:1,2016-06-01T00:06:00Z,29.8672,-93.9310,0.0,99.0,-9999.0,99.0,'11144222,99999999,11144222' 
TCOON,ioos:station:TCOON:524:1,2016-06-01T00:12:00Z,29.8672,-93.9310,0.0,99.0,-9999.0,99.0,'11144222,99999999,11144222' 
TCOON,ioos:station:TCOON:524:1,2016-06-01T00:18:00Z,29.8672,-93.9310,0.0,2.7,185.0,5.1,'1111122,1111122,1111122' 
TCOON,ioos:station:TCOON:524:1,2016-06-01T00:24:00Z,29.8672,-93.9310,0.0,3.1,179.0,5.2,'11111222,11111222,11111222' 
TCOON,ioos:station:TCOON:524:1,2016-06-01T00:30:00Z,29.8672,-93.9310,0.0,3.0,192.0,4.9,'11111222,11111222,11111222' 
TCOON,ioos:station:TCOON:524:1,2016-06-01T00:36:00Z,29.8672,-93.9310,0.0,2.5,181.0,4.3,'11111222,11111222,11111222' 
TCOON,ioos:station:TCOON:524:1,2016-06-01T00:42:00Z,29.8672,-93.9310,0.0,2.8,175.0,4.3,'11111222,11111222,11111222' 
TCOON,ioos:station:TCOON:524:1,2016-06-01T00:48:00Z,29.8672,-93.9310,0.0,2.5,179.0,5.1,'11111222,11111222,11111222' 
TCOON,ioos:station:TCOON:524:1,2016-06-01T00:54:00Z,29.8672,-93.9310,0.0,99.0,-9999.0,99.0,'11144222,99999999,11144222' 
TCOON,ioos:station:TCOON:524:1,2016-06-01T01:00:00Z,29.8672,-93.9310,0.0,99.0,-9999.0,99.0,'11144222,99999999,11144222' 
TCOON,ioos:station:TCOON:524:1,2016-06-01T01:06:00Z,29.8672,-93.9310,0.0,2.4,171.0,4.5,'11111222,11111222,11111222' 
TCOON,ioos:station:TCOON:524:1,2016-06-01T01:12:00Z,29.8672,-93.9310,0.0,2.7,186.0,3.8,'11111222,11111222,11111222' 
TCOON,ioos:station:TCOON:524:1,2016-06-01T01:18:00Z,29.8672,-93.9310,0.0,2.7,186.0,3.8,'1111122,1111122,1111122' 
TCOON,ioos:station:TCOON:524:1,2016-06-01T01:24:00Z,29.8672,-93.9310,0.0,99.0,-9999.0,99.0,'11144222,99999999,11144222' 
TCOON,ioos:station:TCOON:524:1,2016-06-01T01:30:00Z,29.8672,-93.9310,0.0,99.0,-9999.0,99.0,'11144222,99999999,11144222' 
TCOON,ioos:station:TCOON:524:1,2016-06-01T01:36:00Z,29.8672,-93.9310,0.0,99.0,-9999.0,99.0,'11144222,99999999,11144222' 
TCOON,ioos:station:TCOON:524:1,2016-06-01T01:42:00Z,29.8672,-93.9310,0.0,99.0,-9999.0,99.0,'11144222,99999999,11144222' 
TCOON,ioos:station:TCOON:524:1,2016-06-01T01:48:00Z,29.8672,-93.9310,0.0,99.0,-9999.0,99.0,'11144222,99999999,11144222' 
TCOON,ioos:station:TCOON:524:1,2016-06-01T01:54:00Z,29.8672,-93.9310,0.0,99.0,-9999.0,99.0,'11144222,99999999,11144222' 
TCOON,ioos:station:TCOON:524:1,2016-06-01T02:00:00Z,29.8672,-93.9310,0.0,99.0,-9999.0,99.0,'11144222,99999999,11144222' 
TCOON,ioos:station:TCOON:524:1,2016-06-01T02:06:00Z,29.8672,-93.9310,0.0,99.0,-9999.0,99.0,'11144222,99999999,11144222' 
TCOON,ioos:station:TCOON:524:1,2016-06-01T02:12:00Z,29.8672,-93.9310,0.0,99.0,-9999.0,99.0,'11144222,99999999,11144222' 
TCOON,ioos:station:TCOON:524:1,2016-06-01T02:18:00Z,29.8672,-93.9310,0.0,1.9,192.0,3.1,'1111122,1111122,1111122' 
TCOON,ioos:station:TCOON:524:1,2016-06-01T02:24:00Z,29.8672,-93.9310,0.0,99.0,-9999.0,99.0,'11144222,99999999,11144222' 
TCOON,ioos:station:TCOON:524:1,2016-06-01T02:30:00Z,29.8672,-93.9310,0.0,99.0,-9999.0,99.0,'11144222,99999999,11144222' 
TCOON,ioos:station:TCOON:524:1,2016-06-01T02:36:00Z,29.8672,-93.9310,0.0,99.0,-9999.0,99.0,'11144222,99999999,11144222' 
TCOON,ioos:station:TCOON:524:1,2016-06-01T02:42:00Z,29.8672,-93.9310,0.0,99.0,-9999.0,99.0,'11144222,99999999,11144222' 
TCOON,ioos:station:TCOON:524:1,2016-06-01T02:48:00Z,29.8672,-93.9310,0.0,99.0,-9999.0,99.0,'11144222,99999999,11144222' 
TCOON,ioos:station:TCOON:524:1,2016-06-01T02:54:00Z,29.8672,-93.9310,0.0,99.0,-9999.0,99.0,'11144222,99999999,11144222' 
TCOON,ioos:station:TCOON:524:1,2016-06-01T03:00:00Z,29.8672,-93.9310,0.0,99.0,-9999.0,99.0,'11144222,99999999,11144222' 
TCOON,ioos:station:TCOON:524:1,2016-06-01T03:06:00Z,29.8672,-93.9310,0.0,99.0,-9999.0,99.0,'11144222,99999999,11144222' 
TCOON,ioos:station:TCOON:524:1,2016-06-01T03:12:00Z,29.8672,-93.9310,0.0,99.0,-9999.0,99.0,'11144222,99999999,11144222' 
TCOON,ioos:station:TCOON:524:1,2016-06-01T03:18:00Z,29.8672,-93.9310,0.0,1.3,191.0,2.5,'1111122,1111122,1111122' 
TCOON,ioos:station:TCOON:524:1,2016-06-01T03:24:00Z,29.8672,-93.9310,0.0,1.9,207.0,2.5,'11111222,11111222,11111222' 
TCOON,ioos:station:TCOON:524:1,2016-06-01T03:30:00Z,29.8672,-93.9310,0.0,2.1,197.0,2.8,'11111222,11111222,11111222' 
TCOON,ioos:station:TCOON:524:1,2016-06-01T03:36:00Z,29.8672,-93.9310,0.0,1.7,193.0,2.8,'11111222,11111222,11111222' 
TCOON,ioos:station:TCOON:524:1,2016-06-01T03:42:00Z,29.8672,-93.9310,0.0,2.2,202.0,2.9,'11111222,11111222,11111222' 
TCOON,ioos:station:TCOON:524:1,2016-06-01T03:48:00Z,29.8672,-93.9310,0.0,1.5,194.0,2.4,'11111222,11111222,11111222' 
TCOON,ioos:station:TCOON:524:1,2016-06-01T03:54:00Z,29.8672,-93.9310,0.0,1.8,186.0,2.2,'11111222,11111222,11111222' 
TCOON,ioos:station:TCOON:524:1,2016-06-01T04:00:00Z,29.8672,-93.9310,0.0,1.8,194.0,2.4,'11111222,11111222,11111222' 
TCOON,ioos:station:TCOON:524:1,2016-06-01T04:06:00Z,29.8672,-93.9310,0.0,1.8,190.0,2.8,'11111222,11111222,11111222' 
TCOON,ioos:station:TCOON:524:1,2016-06-01T04:12:00Z,29.8672,-93.9310,0.0,1.7,199.0,2.5,'11111222,11111222,11111222' 
TCOON,ioos:station:TCOON:524:1,2016-06-01T04:18:00Z,29.8672,-93.9310,0.0,1.7,199.0,2.5,'1111122,1111122,1111122' 
TCOON,ioos:station:TCOON:524:1,2016-06-01T04:24:00Z,29.8672,-93.9310,0.0,2.1,187.0,3.1,'11111222,11111222,11111222' 
TCOON,ioos:station:TCOON:524:1,2016-06-01T04:30:00Z,29.8672,-93.9310,0.0,1.8,189.0,3.0,'11111222,11111222,11111222' 
TCOON,ioos:station:TCOON:524:1,2016-06-01T04:36:00Z,29.8672,-93.9310,0.0,1.9,195.0,3.0,'11111222,11111222,11111222' 
TCOON,ioos:station:TCOON:524:1,2016-06-01T04:42:00Z,29.8672,-93.9310,0.0,1.7,200.0,2.6,'11111222,11111222,11111222' 
TCOON,ioos:station:TCOON:524:1,2016-06-01T04:48:00Z,29.8672,-93.9310,0.0,1.7,173.0,3.1,'11111222,11111222,11111222' 
TCOON,ioos:station:TCOON:524:1,2016-06-01T04:54:00Z,29.8672,-93.9310,0.0,2.0,170.0,2.8,'11111222,11111222,11111222' 
TCOON,ioos:station:TCOON:524:1,2016-06-01T05:00:00Z,29.8672,-93.9310,0.0,2.2,171.0,3.3,'11111222,11111222,11111222' 
TCOON,ioos:station:TCOON:524:1,2016-06-01T05:06:00Z,29.8672,-93.9310,0.0,2.4,172.0,3.0,'11111222,11111222,11111222' 
TCOON,ioos:station:TCOON:524:1,2016-06-01T05:12:00Z,29.8672,-93.9310,0.0,2.8,177.0,4.3,'11111222,11111222,11111222' 
TCOON,ioos:station:TCOON:524:1,2016-06-01T05:18:00Z,29.8672,-93.9310,0.0,2.8,177.0,4.3,'1111122,1111122,1111122' 
TCOON,ioos:station:TCOON:524:1,2016-06-01T05:24:00Z,29.8672,-93.9310,0.0,4.0,170.0,5.3,'11111222,11111222,11111222' 
TCOON,ioos:station:TCOON:524:1,2016-06-01T05:30:00Z,29.8672,-93.9310,0.0,3.2,161.0,4.5,'11111222,11111222,11111222' 
TCOON,ioos:station:TCOON:524:1,2016-06-01T05:36:00Z,29.8672,-93.9310,0.0,3.6,156.0,6.2,'11111222,11111222,11111222' 
TCOON,ioos:station:TCOON:524:1,2016-06-01T05:42:00Z,29.8672,-93.9310,0.0,3.3,153.0,5.2,'11111222,11111222,11111222' 
TCOON,ioos:station:TCOON:524:1,2016-06-01T05:48:00Z,29.8672,-93.9310,0.0,3.5,153.0,5.3,'11111222,11111222,11111222' 
TCOON,ioos:station:TCOON:524:1,2016-06-01T05:54:00Z,29.8672,-93.9310,0.0,3.8,151.0,6.3,'11111222,11111222,11111222' 
TCOON,ioos:station:TCOON:524:1,2016-06-01T06:00:00Z,29.8672,-93.9310,0.0,4.2,151.0,5.7,'11111222,11111222,11111222' 
TCOON,ioos:station:TCOON:524:1,2016-06-01T06:06:00Z,29.8672,-93.9310,0.0,3.0,138.0,5.2,'11111222,11111222,11111222' 
TCOON,ioos:station:TCOON:524:1,2016-06-01T06:12:00Z,29.8672,-93.9310,0.0,3.6,141.0,4.7,'11111222,11111222,11111222' 
TCOON,ioos:station:TCOON:524:1,2016-06-01T06:18:00Z,29.8672,-93.9310,0.0,4.0,142.0,6.2,'11111222,11111222,11111222' 
TCOON,ioos:station:TCOON:524:1,2016-06-01T06:24:00Z,29.8672,-93.9310,0.0,4.0,142.0,6.2,'1111122,1111122,1111122' 
TCOON,ioos:station:TCOON:524:1,2016-06-01T06:30:00Z,29.8672,-93.9310,0.0,4.6,148.0,6.9,'11111222,11111222,11111222' 
TCOON,ioos:station:TCOON:524:1,2016-06-01T06:36:00Z,29.8672,-93.9310,0.0,4.8,150.0,6.4,'11111222,11111222,11111222' 
TCOON,ioos:station:TCOON:524:1,2016-06-01T06:42:00Z,29.8672,-93.9310,0.0,4.3,148.0,7.2,'11111222,11111222,11111222' 
TCOON,ioos:station:TCOON:524:1,2016-06-01T06:48:00Z,29.8672,-93.9310,0.0,4.2,155.0,6.9,'11111222,11111222,11111222' 
TCOON,ioos:station:TCOON:524:1,2016-06-01T06:54:00Z,29.8672,-93.9310,0.0,4.7,152.0,6.5,'11111222,11111222,11111222' 
TCOON,ioos:station:TCOON:524:1,2016-06-01T07:00:00Z,29.8672,-93.9310,0.0,4.6,152.0,6.8,'11111222,11111222,11111222' 
TCOON,ioos:station:TCOON:524:1,2016-06-01T07:06:00Z,29.8672,-93.9310,0.0,3.7,155.0,5.9,'11111222,11111222,11111222' 
TCOON,ioos:station:TCOON:524:1,2016-06-01T07:12:00Z,29.8672,-93.9310,0.0,4.5,152.0,6.7,'11111222,11111222,11111222' 
TCOON,ioos:station:TCOON:524:1,2016-06-01T07:18:00Z,29.8672,-93.9310,0.0,3.9,152.0,6.1,'11111222,11111222,11111222' 
TCOON,ioos:station:TCOON:524:1,2016-06-01T07:24:00Z,29.8672,-93.9310,0.0,3.9,152.0,6.1,'1111122,1111122,1111122' 
TCOON,ioos:station:TCOON:524:1,2016-06-01T07:30:00Z,29.8672,-93.9310,0.0,3.4,152.0,6.3,'11111222,11111222,11111222' 
TCOON,ioos:station:TCOON:524:1,2016-06-01T07:36:00Z,29.8672,-93.9310,0.0,3.1,171.0,4.7,'11111222,11111222,11111222' 
TCOON,ioos:station:TCOON:524:1,2016-06-01T07:42:00Z,29.8672,-93.9310,0.0,3.3,169.0,5.5,'11111222,11111222,11111222' 
TCOON,ioos:station:TCOON:524:1,2016-06-01T07:48:00Z,29.8672,-93.9310,0.0,2.4,159.0,5.5,'11111222,11111222,11111222' 
TCOON,ioos:station:TCOON:524:1,2016-06-01T07:54:00Z,29.8672,-93.9310,0.0,3.0,153.0,4.2,'11111222,11111222,11111222' 
TCOON,ioos:station:TCOON:524:1,2016-06-01T08:00:00Z,29.8672,-93.9310,0.0,3.7,149.0,4.9,'11111222,11111222,11111222' 
TCOON,ioos:station:TCOON:524:1,2016-06-01T08:06:00Z,29.8672,-93.9310,0.0,3.3,148.0,4.6,'11111222,11111222,11111222' 
TCOON,ioos:station:TCOON:524:1,2016-06-01T08:12:00Z,29.8672,-93.9310,0.0,3.0,152.0,4.7,'11111222,11111222,11111222' 
TCOON,ioos:station:TCOON:524:1,2016-06-01T08:18:00Z,29.8672,-93.9310,0.0,3.8,146.0,5.4,'11111222,11111222,11111222' 
TCOON,ioos:station:TCOON:524:1,2016-06-01T08:24:00Z,29.8672,-93.9310,0.0,2.8,154.0,5.2,'11111222,11111222,11111222' 
TCOON,ioos:station:TCOON:524:1,2016-06-01T08:30:00Z,29.8672,-93.9310,0.0,3.4,150.0,4.9,'11111222,11111222,11111222' 
TCOON,ioos:station:TCOON:524:1,2016-06-01T08:36:00Z,29.8672,-93.9310,0.0,2.4,153.0,4.3,'11111222,11111222,11111222' 
TCOON,ioos:station:TCOON:524:1,2016-06-01T08:42:00Z,29.8672,-93.9310,0.0,2.4,153.0,4.3,'1111122,1111122,1111122' 
TCOON,ioos:station:TCOON:524:1,2016-06-01T08:48:00Z,29.8672,-93.9310,0.0,3.3,155.0,6.2,'11111222,11111222,11111222' 
TCOON,ioos:station:TCOON:524:1,2016-06-01T08:54:00Z,29.8672,-93.9310,0.0,3.5,149.0,5.1,'11111222,11111222,11111222' 
TCOON,ioos:station:TCOON:524:1,2016-06-01T09:00:00Z,29.8672,-93.9310,0.0,3.1,142.0,4.9,'11111222,11111222,11111222' 
TCOON,ioos:station:TCOON:524:1,2016-06-01T09:06:00Z,29.8672,-93.9310,0.0,2.7,138.0,4.2,'11111222,11111222,11111222' 
TCOON,ioos:station:TCOON:524:1,2016-06-01T09:12:00Z,29.8672,-93.9310,0.0,3.1,144.0,4.5,'11111222,11111222,11111222' 
TCOON,ioos:station:TCOON:524:1,2016-06-01T09:18:00Z,29.8672,-93.9310,0.0,3.4,151.0,4.8,'11111222,11111222,11111222' 
TCOON,ioos:station:TCOON:524:1,2016-06-01T09:24:00Z,29.8672,-93.9310,0.0,3.3,145.0,5.6,'11111222,11111222,11111222' 
TCOON,ioos:station:TCOON:524:1,2016-06-01T09:30:00Z,29.8672,-93.9310,0.0,3.2,144.0,4.3,'11111222,11111222,11111222' 
TCOON,ioos:station:TCOON:524:1,2016-06-01T09:36:00Z,29.8672,-93.9310,0.0,3.2,144.0,4.3,'1111122,1111122,1111122' 
TCOON,ioos:station:TCOON:524:1,2016-06-01T09:42:00Z,29.8672,-93.9310,0.0,3.0,152.0,5.5,'11111222,11111222,11111222' 
TCOON,ioos:station:TCOON:524:1,2016-06-01T09:48:00Z,29.8672,-93.9310,0.0,3.1,159.0,4.5,'11111222,11111222,11111222' 
TCOON,ioos:station:TCOON:524:1,2016-06-01T09:54:00Z,29.8672,-93.9310,0.0,2.5,165.0,4.7,'11111222,11111222,11111222' 
TCOON,ioos:station:TCOON:524:1,2016-06-01T10:00:00Z,29.8672,-93.9310,0.0,3.3,166.0,4.6,'11111222,11111222,11111222' 
TCOON,ioos:station:TCOON:524:1,2016-06-01T10:06:00Z,29.8672,-93.9310,0.0,2.3,163.0,3.6,'11111222,11111222,11111222' 
TCOON,ioos:station:TCOON:524:1,2016-06-01T10:12:00Z,29.8672,-93.9310,0.0,2.0,165.0,2.8,'11111222,11111222,11111222' 
TCOON,ioos:station:TCOON:524:1,2016-06-01T10:18:00Z,29.8672,-93.9310,0.0,2.7,184.0,4.5,'11111222,11111222,11111222' 
TCOON,ioos:station:TCOON:524:1,2016-06-01T10:24:00Z,29.8672,-93.9310,0.0,2.4,192.0,4.2,'11111222,11111222,11111222' 
TCOON,ioos:station:TCOON:524:1,2016-06-01T10:30:00Z,29.8672,-93.9310,0.0,2.1,205.0,3.4,'11111222,11111222,11111222' 
TCOON,ioos:station:TCOON:524:1,2016-06-01T10:36:00Z,29.8672,-93.9310,0.0,1.5,179.0,3.1,'11111222,11111222,11111222' 
TCOON,ioos:station:TCOON:524:1,2016-06-01T10:42:00Z,29.8672,-93.9310,0.0,1.3,187.0,2.1,'11111222,11111222,11111222' 
TCOON,ioos:station:TCOON:524:1,2016-06-01T10:48:00Z,29.8672,-93.9310,0.0,1.3,187.0,2.1,'1111122,1111122,1111122' 
TCOON,ioos:station:TCOON:524:1,2016-06-01T10:54:00Z,29.8672,-93.9310,0.0,1.3,176.0,1.8,'11111222,11111222,11111222' 
TCOON,ioos:station:TCOON:524:1,2016-06-01T11:00:00Z,29.8672,-93.9310,0.0,1.1,168.0,2.2,'11111222,11111222,11111222' 
TCOON,ioos:station:TCOON:524:1,2016-06-01T11:06:00Z,29.8672,-93.9310,0.0,1.7,166.0,3.3,'11111222,11111222,11111222' 
TCOON,ioos:station:TCOON:524:1,2016-06-01T11:12:00Z,29.8672,-93.9310,0.0,1.5,178.0,2.5,'11111222,11111222,11111222' 
TCOON,ioos:station:TCOON:524:1,2016-06-01T11:18:00Z,29.8672,-93.9310,0.0,1.3,185.0,2.4,'11111222,11111222,11111222' 
TCOON,ioos:station:TCOON:524:1,2016-06-01T11:24:00Z,29.8672,-93.9310,0.0,1.4,206.0,1.9,'11111222,11111222,11111222' 
TCOON,ioos:station:TCOON:524:1,2016-06-01T11:30:00Z,29.8672,-93.9310,0.0,1.4,206.0,1.9,'1111122,1111122,1111122' 
TCOON,ioos:station:TCOON:524:1,2016-06-01T11:36:00Z,29.8672,-93.9310,0.0,1.1,209.0,1.3,'11111222,11111222,11111222' 
TCOON,ioos:station:TCOON:524:1,2016-06-01T11:42:00Z,29.8672,-93.9310,0.0,0.8,202.0,1.4,'11111222,11111222,11111222' 
TCOON,ioos:station:TCOON:524:1,2016-06-01T11:48:00Z,29.8672,-93.9310,0.0,0.7,193.0,1.1,'11111222,11111222,11111222' 
TCOON,ioos:station:TCOON:524:1,2016-06-01T11:54:00Z,29.8672,-93.9310,0.0,0.6,171.0,0.9,'11111222,11111222,11111222' 
TCOON,ioos:station:TCOON:524:1,2016-06-01T12:00:00Z,29.8672,-93.9310,0.0,0.7,154.0,1.1,'11111222,11111222,11111222' 
TCOON,ioos:station:TCOON:524:1,2016-06-01T12:06:00Z,29.8672,-93.9310,0.0,0.4,154.0,0.8,'11111222,11111222,11111222' 
TCOON,ioos:station:TCOON:524:1,2016-06-01T12:12:00Z,29.8672,-93.9310,0.0,0.9,153.0,1.1,'11111222,11111222,11111222' 
TCOON,ioos:station:TCOON:524:1,2016-06-01T12:18:00Z,29.8672,-93.9310,0.0,0.6,100.0,0.9,'11111222,11111222,11111222' 
TCOON,ioos:station:TCOON:524:1,2016-06-01T12:24:00Z,29.8672,-93.9310,0.0,0.6,100.0,0.9,'1111122,1111122,1111122' 
TCOON,ioos:station:TCOON:524:1,2016-06-01T12:30:00Z,29.8672,-93.9310,0.0,0.7,152.0,1.4,'11111222,11111222,11111222' 
TCOON,ioos:station:TCOON:524:1,2016-06-01T12:36:00Z,29.8672,-93.9310,0.0,0.5,152.0,1.6,'11111222,11111222,11111222' 
TCOON,ioos:station:TCOON:524:1,2016-06-01T12:42:00Z,29.8672,-93.9310,0.0,1.5,128.0,2.1,'11111222,11111222,11111222' 
TCOON,ioos:station:TCOON:524:1,2016-06-01T12:48:00Z,29.8672,-93.9310,0.0,2.0,146.0,3.0,'11111222,11111222,11111222' 
TCOON,ioos:station:TCOON:524:1,2016-06-01T12:54:00Z,29.8672,-93.9310,0.0,2.2,160.0,3.3,'11111222,11111222,11111222' 
TCOON,ioos:station:TCOON:524:1,2016-06-01T13:00:00Z,29.8672,-93.9310,0.0,1.8,158.0,2.7,'11111222,11111222,11111222' 
TCOON,ioos:station:TCOON:524:1,2016-06-01T13:06:00Z,29.8672,-93.9310,0.0,2.0,180.0,3.9,'11111222,11111222,11111222' 
TCOON,ioos:station:TCOON:524:1,2016-06-01T13:12:00Z,29.8672,-93.9310,0.0,2.0,165.0,3.4,'11111222,11111222,11111222' 
TCOON,ioos:station:TCOON:524:1,2016-06-01T13:18:00Z,29.8672,-93.9310,0.0,2.3,159.0,3.1,'11111222,11111222,11111222' 
TCOON,ioos:station:TCOON:524:1,2016-06-01T13:24:00Z,29.8672,-93.9310,0.0,2.1,167.0,3.3,'11111222,11111222,11111222' 
TCOON,ioos:station:TCOON:524:1,2016-06-01T13:30:00Z,29.8672,-93.9310,0.0,1.9,166.0,2.6,'11111222,11111222,11111222' 
TCOON,ioos:station:TCOON:524:1,2016-06-01T13:36:00Z,29.8672,-93.9310,0.0,1.8,167.0,2.4,'11111222,11111222,11111222' 
TCOON,ioos:station:TCOON:524:1,2016-06-01T13:42:00Z,29.8672,-93.9310,0.0,1.8,167.0,2.4,'1111122,1111122,1111122' 
TCOON,ioos:station:TCOON:524:1,2016-06-01T13:48:00Z,29.8672,-93.9310,0.0,2.3,172.0,3.2,'11111222,11111222,11111222' 
TCOON,ioos:station:TCOON:524:1,2016-06-01T13:54:00Z,29.8672,-93.9310,0.0,2.1,162.0,3.6,'11111222,11111222,11111222' 
TCOON,ioos:station:TCOON:524:1,2016-06-01T14:00:00Z,29.8672,-93.9310,0.0,2.6,183.0,3.8,'11111222,11111222,11111222' 
TCOON,ioos:station:TCOON:524:1,2016-06-01T14:06:00Z,29.8672,-93.9310,0.0,2.5,189.0,3.3,'11111222,11111222,11111222' 
TCOON,ioos:station:TCOON:524:1,2016-06-01T14:12:00Z,29.8672,-93.9310,0.0,2.2,166.0,3.2,'11111222,11111222,11111222' 
TCOON,ioos:station:TCOON:524:1,2016-06-01T14:18:00Z,29.8672,-93.9310,0.0,2.9,185.0,4.2,'11111222,11111222,11111222' 
TCOON,ioos:station:TCOON:524:1,2016-06-01T14:24:00Z,29.8672,-93.9310,0.0,3.3,169.0,4.7,'11111222,11111222,11111222' 
TCOON,ioos:station:TCOON:524:1,2016-06-01T14:30:00Z,29.8672,-93.9310,0.0,2.9,164.0,4.5,'11111222,11111222,11111222' 
TCOON,ioos:station:TCOON:524:1,2016-06-01T14:36:00Z,29.8672,-93.9310,0.0,3.1,170.0,3.9,'11111222,11111222,11111222' 
TCOON,ioos:station:TCOON:524:1,2016-06-01T14:42:00Z,29.8672,-93.9310,0.0,3.1,170.0,3.9,'1111122,1111122,1111122' 
TCOON,ioos:station:TCOON:524:1,2016-06-01T14:48:00Z,29.8672,-93.9310,0.0,3.1,172.0,4.4,'11111222,11111222,11111222' 
TCOON,ioos:station:TCOON:524:1,2016-06-01T14:54:00Z,29.8672,-93.9310,0.0,2.6,168.0,4.3,'11111222,11111222,11111222' 
TCOON,ioos:station:TCOON:524:1,2016-06-01T15:00:00Z,29.8672,-93.9310,0.0,2.2,153.0,3.7,'11111222,11111222,11111222' 
TCOON,ioos:station:TCOON:524:1,2016-06-01T15:06:00Z,29.8672,-93.9310,0.0,2.6,164.0,4.2,'11111222,11111222,11111222' 
TCOON,ioos:station:TCOON:524:1,2016-06-01T15:12:00Z,29.8672,-93.9310,0.0,2.3,166.0,3.6,'11111222,11111222,11111222' 
TCOON,ioos:station:TCOON:524:1,2016-06-01T15:18:00Z,29.8672,-93.9310,0.0,2.8,155.0,4.2,'11111222,11111222,11111222' 
TCOON,ioos:station:TCOON:524:1,2016-06-01T15:24:00Z,29.8672,-93.9310,0.0,2.8,155.0,4.2,'1111122,1111122,1111122' 
TCOON,ioos:station:TCOON:524:1,2016-06-01T15:30:00Z,29.8672,-93.9310,0.0,2.6,156.0,4.0,'11111222,11111222,11111222' 
TCOON,ioos:station:TCOON:524:1,2016-06-01T15:36:00Z,29.8672,-93.9310,0.0,2.9,147.0,4.5,'11111222,11111222,11111222' 
TCOON,ioos:station:TCOON:524:1,2016-06-01T15:42:00Z,29.8672,-93.9310,0.0,2.6,154.0,4.2,'11111222,11111222,11111222' 
TCOON,ioos:station:TCOON:524:1,2016-06-01T15:48:00Z,29.8672,-93.9310,0.0,3.1,151.0,4.3,'11111222,11111222,11111222' 
TCOON,ioos:station:TCOON:524:1,2016-06-01T15:54:00Z,29.8672,-93.9310,0.0,3.9,147.0,4.5,'11111222,11111222,11111222' 
TCOON,ioos:station:TCOON:524:1,2016-06-01T16:00:00Z,29.8672,-93.9310,0.0,3.5,148.0,4.8,'11111222,11111222,11111222' 
TCOON,ioos:station:TCOON:524:1,2016-06-01T16:06:00Z,29.8672,-93.9310,0.0,4.7,152.0,9.0,'11111222,11111222,11111222' 
TCOON,ioos:station:TCOON:524:1,2016-06-01T16:12:00Z,29.8672,-93.9310,0.0,4.6,175.0,6.6,'11111222,11111222,11111222' 
TCOON,ioos:station:TCOON:524:1,2016-06-01T16:18:00Z,29.8672,-93.9310,0.0,8.2,152.0,11.3,'11111222,11111222,11111222' 
TCOON,ioos:station:TCOON:524:1,2016-06-01T16:24:00Z,29.8672,-93.9310,0.0,7.3,140.0,12.0,'11111222,11111222,11111222' 
TCOON,ioos:station:TCOON:524:1,2016-06-01T16:30:00Z,29.8672,-93.9310,0.0,5.9,139.0,8.8,'11111222,11111222,11111222' 
TCOON,ioos:station:TCOON:524:1,2016-06-01T16:36:00Z,29.8672,-93.9310,0.0,5.9,139.0,8.8,'1111122,1111122,1111122' 
TCOON,ioos:station:TCOON:524:1,2016-06-01T16:42:00Z,29.8672,-93.9310,0.0,4.3,131.0,5.8,'11111222,11111222,11111222' 
TCOON,ioos:station:TCOON:524:1,2016-06-01T16:48:00Z,29.8672,-93.9310,0.0,3.9,123.0,6.3,'11111222,11111222,11111222' 
TCOON,ioos:station:TCOON:524:1,2016-06-01T16:54:00Z,29.8672,-93.9310,0.0,3.9,127.0,5.2,'11111222,11111222,11111222' 
TCOON,ioos:station:TCOON:524:1,2016-06-01T17:00:00Z,29.8672,-93.9310,0.0,4.0,118.0,6.0,'11111222,11111222,11111222' 
TCOON,ioos:station:TCOON:524:1,2016-06-01T17:06:00Z,29.8672,-93.9310,0.0,4.1,111.0,5.7,'11111222,11111222,11111222' 
TCOON,ioos:station:TCOON:524:1,2016-06-01T17:12:00Z,29.8672,-93.9310,0.0,3.2,120.0,5.9,'11111222,11111222,11111222' 
TCOON,ioos:station:TCOON:524:1,2016-06-01T17:18:00Z,29.8672,-93.9310,0.0,3.6,112.0,5.7,'11111222,11111222,11111222' 
TCOON,ioos:station:TCOON:524:1,2016-06-01T17:24:00Z,29.8672,-93.9310,0.0,2.7,114.0,6.6,'11111222,11111222,11111222' 
TCOON,ioos:station:TCOON:524:1,2016-06-01T17:30:00Z,29.8672,-93.9310,0.0,4.1,116.0,6.3,'11111222,11111222,11111222' 
TCOON,ioos:station:TCOON:524:1,2016-06-01T17:36:00Z,29.8672,-93.9310,0.0,2.8,120.0,4.5,'11111222,11111222,11111222' 
TCOON,ioos:station:TCOON:524:1,2016-06-01T17:42:00Z,29.8672,-93.9310,0.0,2.8,120.0,4.5,'1111122,1111122,1111122' 
TCOON,ioos:station:TCOON:524:1,2016-06-01T17:48:00Z,29.8672,-93.9310,0.0,3.2,105.0,5.4,'11111222,11111222,11111222' 
TCOON,ioos:station:TCOON:524:1,2016-06-01T17:54:00Z,29.8672,-93.9310,0.0,1.9,96.0,3.9,'11111222,11111222,11111222' 
TCOON,ioos:station:TCOON:524:1,2016-06-01T18:00:00Z,29.8672,-93.9310,0.0,2.5,102.0,3.6,'11111222,11111222,11111222' 
TCOON,ioos:station:TCOON:524:1,2016-06-01T18:06:00Z,29.8672,-93.9310,0.0,3.0,115.0,4.4,'11111222,11111222,11111222' 
TCOON,ioos:station:TCOON:524:1,2016-06-01T18:12:00Z,29.8672,-93.9310,0.0,2.6,125.0,4.8,'11111222,11111222,11111222' 
TCOON,ioos:station:TCOON:524:1,2016-06-01T18:18:00Z,29.8672,-93.9310,0.0,2.1,134.0,3.9,'11111222,11111222,11111222' 
TCOON,ioos:station:TCOON:524:1,2016-06-01T18:24:00Z,29.8672,-93.9310,0.0,2.1,134.0,3.9,'1111122,1111122,1111122' 
TCOON,ioos:station:TCOON:524:1,2016-06-01T18:30:00Z,29.8672,-93.9310,0.0,1.9,132.0,3.5,'11111222,11111222,11111222' 
TCOON,ioos:station:TCOON:524:1,2016-06-01T18:36:00Z,29.8672,-93.9310,0.0,1.1,205.0,2.3,'11111222,11111222,11111222' 
TCOON,ioos:station:TCOON:524:1,2016-06-01T18:42:00Z,29.8672,-93.9310,0.0,2.0,264.0,2.7,'11111222,11111222,11111222' 
TCOON,ioos:station:TCOON:524:1,2016-06-01T18:48:00Z,29.8672,-93.9310,0.0,0.1,192.0,2.4,'11111222,11111222,11111222' 
TCOON,ioos:station:TCOON:524:1,2016-06-01T18:54:00Z,29.8672,-93.9310,0.0,0.6,143.0,1.1,'11111222,11111222,11111222' 
TCOON,ioos:station:TCOON:524:1,2016-06-01T19:00:00Z,29.8672,-93.9310,0.0,1.5,359.0,1.8,'11111222,11111222,11111222' 
TCOON,ioos:station:TCOON:524:1,2016-06-01T19:06:00Z,29.8672,-93.9310,0.0,2.1,11.0,2.4,'11111222,11111222,11111222' 
TCOON,ioos:station:TCOON:524:1,2016-06-01T19:12:00Z,29.8672,-93.9310,0.0,2.0,349.0,2.7,'11111222,11111222,11111222' 
TCOON,ioos:station:TCOON:524:1,2016-06-01T19:18:00Z,29.8672,-93.9310,0.0,3.1,357.0,3.5,'11111222,11111222,11111222' 
TCOON,ioos:station:TCOON:524:1,2016-06-01T19:24:00Z,29.8672,-93.9310,0.0,2.5,327.0,3.6,'11111222,11111222,11111222' 
TCOON,ioos:station:TCOON:524:1,2016-06-01T19:30:00Z,29.8672,-93.9310,0.0,2.4,310.0,3.3,'11111222,11111222,11111222' 
TCOON,ioos:station:TCOON:524:1,2016-06-01T19:36:00Z,29.8672,-93.9310,0.0,2.4,310.0,3.3,'1111122,1111122,1111122' 
TCOON,ioos:station:TCOON:524:1,2016-06-01T19:42:00Z,29.8672,-93.9310,0.0,4.2,335.0,5.0,'11111222,11111222,11111222' 
TCOON,ioos:station:TCOON:524:1,2016-06-01T19:48:00Z,29.8672,-93.9310,0.0,3.2,303.0,4.9,'11111222,11111222,11111222' 
TCOON,ioos:station:TCOON:524:1,2016-06-01T19:54:00Z,29.8672,-93.9310,0.0,4.4,300.0,6.0,'11111222,11111222,11111222' 
TCOON,ioos:station:TCOON:524:1,2016-06-01T20:00:00Z,29.8672,-93.9310,0.0,5.4,251.0,6.8,'11111222,11111222,11111222' 
TCOON,ioos:station:TCOON:524:1,2016-06-01T20:06:00Z,29.8672,-93.9310,0.0,2.8,179.0,5.8,'11111222,11111222,11111222' 
TCOON,ioos:station:TCOON:524:1,2016-06-01T20:12:00Z,29.8672,-93.9310,0.0,1.9,212.0,2.8,'11111222,11111222,11111222' 